Погода в Шуерецком

Россия / Республика Карелия     64°44′29″N   34°42′10″E
темп.,
°C
ветер,
м/с
пор.,
м/с
влажн.,
%
обл.,
%
осадки,
мм/ч
давл.,
гПа
погр.,
м
2 июля, сб
сб200:00+13всв247290 0.0 102260
03:00+13вюв367444 0.0 1022127
06:00+14юв358035 0.0 1022166
09:00+17вюв347137 0.1 1023329
12:00+19вюв346014 0.3 1022368
15:00+19вюв3454100 0.3 1021335
18:00+16вюв3568100 0.0 1020152
21:00+15вюв2474100 0.0 1019100
3 июля, вс
вс300:00+15юв3581100 0.5 101876
03:00+14ююв358199 0.6 101873
06:00+17ююв257695 0.0 1017131
09:00+22ююв346041 0.0 1016423
12:00+25ююв3449100 0.2 1015979
15:00+24юв444892 0.4 1015483
18:00+22сз166798 0.3 1014326
21:00+20юз228252 1.3 101453
4 июля, пн
пн400:00+18юз339057 0.6 101542
03:00+17зюз2297100 3.4 101539
06:00+19сз239151 0.1 1015146
09:00+22всв117214 0.1 1015558
12:00+25всв235530 0.1 10151359
15:00+23вюв446217 0.1 1014456
18:00+21юв346614 0.0 1013225
21:00+18юв248058 0.0 101379
5 июля, вт
вт500:00+18юв378195 0.0 1012130
03:00+18юв368458 0.0 1011119
06:00+19ю248856 0.5 1011135
09:00+22ююз136083 0.5 1010350
12:00+26ю24355 0.0 10091518
15:00+26юв464063 0.0 10071338
18:00+27юз48333 0.0 10062545
21:00+22юз6125479 0.1 1006612
6 июля, ср
ср600:00+16зюз37845 0.3 1006147
03:00+15з25855 0.3 100684
06:00+17юз386982 0.0 1007369
09:00+20юз584511 0.0 10071397
12:00+21зюз69373 0.0 10061830
15:00+23зюз583326 0.0 10062452
18:00+23зюз57339 0.0 10052442
21:00+19юз51050100 0.0 1005402